Home Music Articles Forums Blog Chat More...      
SCJohnson59
(Scott Charles Johnson)


Member Since: Thursday, March 04 2010 @ 01:12 AM CST
Contact: send a note
Homepage: http://www.icompositions.com/artists/SCJohnson59
Location: New York City, NY United States
Song Comments: 804
Song Votes: 8
Forum Posts: 17
Weekly Points: 0.00
Total Points: 2990.60
Bio:
I've had a passion for music dating back to being a very young child and seeing The Beatles on Ed Sullivan along with being exposed to jazz and classical by my non-musician parents and Motown by my youngest Aunt. I started playing electric bass in '76 and started playing piano and writing songs 2 years later. I studied electric bass from a jazz player and sang classical 4 part harmony in my church choir(I used to steal the music, that's how I learned to read lol). Did session work and was a weekend warrior in the '80s and '90s. And here I am! :)
SCJohnson59's Songs (205)
Date Title Rating Hits Genre Last Comment Status
04.04.13 0404 aka Girl, You Doll Up Nice Take 2 0.00 (0) 1232 (3) Jazz (instrumental) 06.13.13 Active
04.04.13 04032013 aka Piano, solo violin and VIs 0.00 (0) 580 (1) Classical 04.10.13 Active
03.29.13 03292013 aka You Saved My Life 0.00 (0) 687 (1) Soul 03.30.13 Active
03.28.13 03282013 aka Girl, You Doll Up Nice! 0.00 (0) 4199 (2) Open Collaborations 10.19.13 Active
03.26.13 03262013 aka Piano and string quartet attempt 0.00 (0) 945 (12) Classical 03.30.13 Active
03.26.13 03262013 aka Piano and string quartet attempt 0.00 (0) 455 (0) N/A Active
03.24.13 03242013 aka New Beginnings 0.00 (0) 731 (2) Open Collaborations 03.26.13 Active
03.23.13 03232013 aka Sketch Of A Friend in progress 0.00 (0) 648 (1) Open Collaborations 03.23.13 Active
03.17.13 03172013 aka St Patty's Day Jazz 120 bpm 0.00 (0) 619 (3) Open Collaborations 03.22.13 Active
03.17.13 03172013 aka St Patty's Day Jazz 90 bpm 0.00 (0) 1195 (2) Open Collaborations 03.19.13 Active
03.16.13 03162013 aka I'll Never Forget You 0.00 (0) 763 (2) Open Collaborations 03.17.13 Active
03.15.13 03152013 aka Wish You Were Still Here 0.00 (0) 723 (4) Open Collaborations 03.15.13 Active
03.12.13 03102013 aka Through My Window 0.00 (0) 752 (3) Open Collaborations 03.15.13 Active
03.09.13 Smartphone test 0.00 (0) 781 (8) Classical 03.14.13 Active
12.21.12 My Old Friend 0.00 (0) 999 (4) Rhythm and Blues 12.23.12 Active
12.09.12 Do What You Say You Gonna Do a collab w/Mike Huntingford 0.00 (0) 1075 (7) Rhythm and Blues 12.11.12 Active
10.19.12 10192012 aka Each One's Life IsWonderful 0.00 (0) 1036 (7) Open Collaborations 10.20.12 Active
10.16.12 Never Far Away take 2 0.00 (0) 921 (3) Jazz (instrumental) 10.16.12 Active
09.11.12 09112012 aka They Ran In 0.00 (0) 921 (6) Inspirational (contemporary) 10.08.12 Active
08.31.12 08312012 aka Baby Elephant 0.00 (0) 1171 (9) Jazz (instrumental) 09.07.12 Active
08.03.12 08032012 aka One For Gabby 0.00 (0) 862 (2) Rhythm and Blues 08.05.12 Active
07.31.12 08012012 aka Heaven's Eyes 0.00 (0) 964 (4) Rhythm and Blues 08.02.12 Active
07.28.12 07282012 aka You 0.00 (0) 1072 (4) Rhythm and Blues 07.29.12 Active
07.25.12 07242012 aka Skies Over Harlem take 2 0.00 (0) 945 (6) Jazz (instrumental) 08.04.12 Active
07.24.12 07242012 aka Skies Over Harlem 10.00 (1) 830 (4) Jazz (instrumental) 07.30.12 Active
07.20.12 08172011 aka Blue and Gold with Andy's Sax 0.00 (0) 1310 (12) Jazz (instrumental) 07.21.12 Active
07.20.12 07192012 aka The Sweetest Word Is Love 0.00 (0) 1153 (4) Rhythm and Blues 07.20.12 Active
07.12.12 07122012 aka Still Somebody's Boo 0.00 (0) 1016 (10) Rhythm and Blues 07.15.12 Active
07.10.12 Strollin by SCJohnson59 and Zamzam 10.00 (1) 1069 (8) Funk 07.12.12 Active
07.05.12 07052012 aka I See You 10.00 (1) 1279 (10) Rhythm and Blues 07.05.12 Active
06.28.12 06282012 10.00 (1) 935 (10) Rhythm and Blues 06.29.12 Active
06.22.12 Dawn's Eyes fleshed out 0.00 (0) 976 (8) Rhythm and Blues 07.30.12 Active
06.21.12 Dawn's Eyes ... a sketch 0.00 (0) 1132 (7) Rhythm and Blues 06.25.12 Active
06.18.12 The Day Mom Went Home ... in progress 0.00 (0) 1020 (4) Rhythm and Blues 06.20.12 Active
06.15.12 All I Need in progress take 3 0.00 (0) 1079 (4) Rhythm and Blues 06.16.12 Active
06.13.12 All I Need in progress 0.00 (0) 1026 (7) Open Collaborations 06.14.12 Active
06.08.12 Back In The World in progress 0.00 (0) 1089 (9) Rhythm and Blues 06.14.12 Active
06.07.12 Karaoke Bumper 0.00 (0) 1058 (14) Rhythm and Blues 06.10.12 Active
09.28.11 Topless Dancer feat Andy Wigzell take 2 0.00 (0) 2455 (25) Funk 10.12.11 Active
09.14.11 Topless Dancr feat Andy Wigzell 8.75 (1) 1631 (12) Funk 09.28.11 Active
08.18.11 08172011 aka Blue and Gold 0.00 (0) 1587 (13) Jazz (instrumental) 09.13.11 Active
08.11.11 Topless Dancer 0.00 (0) 1674 (10) Soul 08.18.11 Active
08.03.11 08032011 aka My Days Off 0.00 (0) 1174 (4) Open Collaborations 08.07.11 Active
07.29.11 07292011 aka In The Twilight 0.00 (0) 1108 (4) Open Collaborations 08.02.11 Active
07.20.11 Vicissitude By Andy Wigzell with live bass by Scott Johnson 0.00 (0) 1688 (16) NUjazz 07.23.11 Active
07.14.11 Only You aka 07132011 0.00 (0) 1278 (7) Open Collaborations 07.19.11 Active
07.07.11 07062011 aka Kiss And Make Up 0.00 (0) 1122 (6) Open Collaborations 07.14.11 Active
06.30.11 06302011 aka There Is No Difference 0.00 (0) 1141 (7) Open Collaborations 07.07.11 Active
06.22.11 06222011 aka '61 Caddy Coupe 0.00 (0) 2191 (12) Jazz (instrumental) 06.28.11 Active
06.21.11 Sneakers For Adawnye' 0.00 (0) 1501 (12) Jazz (instrumental) 06.22.11 Active
06.09.11 Cold Pizza, Warm Beer aka 06092011 0.00 (0) 1175 (7) Latin Jazz 08.02.11 Active
06.08.11 06082011 a sketch 0.00 (0) 1289 (6) Rhythm and Blues 06.09.11 Active
06.03.11 06012011 take 2 in progress/open collab 0.00 (0) 1098 (2) Jazz (instrumental) 06.06.11 Active
06.02.11 I'll Block The Plate For You in progress/open collab 0.00 (0) 1295 (4) Jazz (instrumental) 06.05.11 Active
06.01.11 06012011 in progress 0.00 (0) 1068 (5) Jazz (instrumental) 06.02.11 Active
05.27.11 Why Don't You Stop Trippin' Out? in progress 6.25 (1) 1156 (10) Open Collaborations 06.05.11 Active
05.26.11 Relax Into My Love in progress 0.00 (0) 1218 (8) Open Collaborations 05.27.11 Active
05.23.11 Never In My Wildest Dreams feat KCsGROOVE 0.00 (0) 1829 (18) Jazz (instrumental) 06.30.11 Active
05.22.11 Insomnia in progress 0.00 (0) 1255 (8) Rhythm and Blues 05.27.11 Active
05.19.11 Never In My Wildest Dreams open collab 0.00 (0) 1786 (12) Jazz (instrumental) 05.20.11 Active
05.12.11 05112011 take 2 0.00 (0) 1260 (1) Other 05.19.11 Active
05.12.11 05112011 0.00 (0) 1191 (6) Other 05.13.11 Active
05.05.11 Happy Birthday Mom 0.00 (0) 1838 (6) Rhythm and Blues 05.09.11 Active
05.03.11 If I Gotta Swim take 3 0.00 (0) 1584 (9) Rhythm and Blues 05.12.11 Active
04.29.11 If I Gotta Swim take 2 0.00 (0) 1226 (3) Open Collaborations 05.02.11 Active
04.26.11 04262011 open collab 0.00 (0) 1367 (8) Rhythm and Blues 04.29.11 Active
04.21.11 I Promise To Fight Fair 0.00 (0) 1549 (4) Open Collaborations 04.25.11 Active
04.17.11 Nobody Loves You More Than Us ... a lullabuy for Adawnye' 0.00 (0) 1590 (8) Children's Music 04.20.11 Active
04.17.11 Pretty Little Senorita by JDHolliday 0.00 (0) 1716 (16) Pop (mainstream) 04.24.11 Active
04.17.11 You're My Cup Of Tea (in progress) 0.00 (0) 1093 (4) Rhythm and Blues 04.17.11 Active
04.13.11 Mommy Misses You 0.00 (0) 1392 (8) Rhythm and Blues 04.15.11 Active
04.10.11 The Best Thing This Side Of Heaven take 2 0.00 (0) 1441 (2) Rhythm and Blues 04.11.11 Active
04.05.11 Soona Than Ya Might Think 0.00 (0) 1194 (8) Other 04.09.11 Active
04.05.11 Dawn's Hiding Space, full orchestration 0.00 (0) 1436 (4) Jazz (instrumental) 04.07.11 Active
04.04.11 Dawn's Hiding Space 0.00 (0) 1487 (4) Jazz (instrumental) 04.04.11 Active
03.30.11 Now I Am Part Of A Team! 0.00 (0) 1350 (9) Soul 04.02.11 Active
03.28.11 Happy (take 2) 0.00 (0) 1340 (2) Rhythm and Blues 03.29.11 Active
03.26.11 Happy(in progress) 0.00 (0) 1418 (8) Rhythm and Blues 03.28.11 Active
03.10.11 I Wanna Play For You take 2 0.00 (0) 1568 (6) Open Collaborations 03.16.11 Active
03.09.11 I Wanna Play For You a sketch for Dawn 0.00 (0) 1205 (2) Open Collaborations 03.09.11 Active
03.03.11 wakwak by taylormorgan 0.00 (0) 1803 (11) Ambient 03.12.11 Active
02.24.11 Happy Endings vocal test (in progress) 0.00 (0) 1604 (7) Open Collaborations 03.02.11 Active
02.16.11 Brothers (in progress) 0.00 (0) 1190 (2) Open Collaborations 02.18.11 Active
02.10.11 somethin short and sweet vocal test 0.00 (0) 1494 (6) Open Collaborations 02.15.11 Active
02.06.11 Somethin Short And Sweet take 1(in progress) 0.00 (0) 1555 (6) Rhythm and Blues 02.08.11 Active
02.02.11 Guilty Til Innocent with 'guitars' in progress 0.00 (0) 1302 (2) Open Collaborations 02.18.11 Active
01.29.11 Don't Think That I Don't (take 2) 0.00 (0) 1475 (1) Open Collaborations 01.31.11 Active
01.28.11 Guilty Til Proven Innocent 0.00 (0) 1339 (7) Rhythm and Blues 01.30.11 Active
01.24.11 Don't Think That I Don't (a draft) 0.00 (0) 1229 (8) Open Collaborations 01.25.11 Active
01.20.11 Do U Trust Me? an open collab sketch 0.00 (0) 1075 (2) Open Collaborations 01.21.11 Active
01.19.11 Dominoes 0.00 (0) 1528 (6) Rhythm and Blues 01.25.11 Active
01.13.11 Stop Blowin' Up (open collab) 10.00 (1) 1816 (12) Soul 01.16.11 Active
01.12.11 Wide Open by taylormorgan 10.00 (1) 1877 (22) Ambient 02.27.11 Active
01.10.11 No Matter What (a draft) 0.00 (0) 1340 (6) Open Collaborations 01.12.11 Active
01.05.11 Catch It All (a draft) 0.00 (0) 1138 (2) Open Collaborations 01.05.11 Active
01.02.11 I Let Her Watch 0.00 (0) 1402 (4) Open Collaborations 01.05.11 Active
12.30.10 I Think You Are Beautiful! (open collab) 0.00 (0) 1286 (4) Open Collaborations 01.03.11 Active
12.29.10 Tell Me Why 0.00 (0) 1568 (2) Rhythm and Blues 12.29.10 Active
12.27.10 Keeping Warm In The Snow (a draft) 0.00 (0) 1368 (4) Open Collaborations 12.29.10 Active
12.23.10 Christmas Eve Eve 0.00 (0) 1650 (8) Jazz (instrumental) 12.26.10 Active
12.22.10 What Child Is This 0.00 (0) 1197 (3) Classical 12.28.10 Active
12.21.10 You Can Count On Me (a draft) 0.00 (0) 1650 (12) Open Collaborations 01.12.11 Active
12.14.10 Hot And Cold 0.00 (0) 1793 (10) Open Collaborations 12.20.10 Active
12.07.10 You Mean The World To Me 0.00 (0) 1309 (3) Open Collaborations 12.08.10 Active
12.04.10 Friday Night 0.00 (0) 1559 (11) Jazz (instrumental) 12.06.10 Active
11.25.10 Surprises Come From Nowhere 0.00 (0) 1331 (4) Open Collaborations 11.26.10 Active
11.23.10 Cupcakes Groove 0.00 (0) 1642 (11) Open Collaborations 12.04.10 Active
11.18.10 Didn't I Tell You It's Gonna Be OK? full 0.00 (0) 1523 (5) Open Collaborations 11.22.10 Active
11.16.10 111610 0.00 (0) 1375 (4) Open Collaborations 11.17.10 Active
11.09.10 You're Scaring Me 0.00 (0) 1474 (13) Open Collaborations 11.14.10 Active
11.07.10 When You Smile 0.00 (0) 1555 (8) Open Collaborations 11.14.10 Active
10.26.10 Didn't I Tell You It's Gonna Be OK? (In Progress) 0.00 (0) 1461 (20) New Age 11.07.10 Active
10.19.10 We Won! 0.00 (0) 1683 (18) Rhythm and Blues 11.08.10 Active
10.10.10 Our Day Is Coming 0.00 (0) 1390 (8) Open Collaborations 10.12.10 Active
10.02.10 Can't Wait Until Monday 0.00 (0) 1326 (10) Open Collaborations 10.02.10 Active
10.01.10 Nothing Wrong 0.00 (0) 1289 (7) Open Collaborations 10.02.10 Active
09.28.10 Alone Ain't Lonely 0.00 (0) 1443 (7) Open Collaborations 10.01.10 Active
09.27.10 Snoopy Plays Bass 8.75 (1) 2040 (8) Open Collaborations 10.04.10 Active
09.26.10 I'll Be Right Here 0.00 (0) 1299 (7) Open Collaborations 10.01.10 Active
09.23.10 For The Last Time 0.00 (0) 1491 (6) Open Collaborations 09.26.10 Active
09.23.10 Make Me An Offer w/Alannah and Awigze 7.50 (1) 1752 (26) Jazz (vocal) 09.24.10 Active
09.21.10 Unconditional Love 0.00 (0) 1368 (4) Open Collaborations 11.18.10 Active
09.20.10 When Can You Start? 0.00 (0) 1162 (7) Open Collaborations 10.01.10 Active
09.20.10 Sleep Well Tonight 7.50 (1) 1286 (6) Children's Music 09.21.10 Active
09.19.10 Just A New Song 0.00 (0) 1257 (7) Open Collaborations 10.01.10 Active
09.16.10 Where Is It? 8.50 (1) 1272 (5) Open Collaborations 10.01.10 Active
09.14.10 Looking Up take 2 0.00 (0) 1205 (1) Open Collaborations 10.01.10 Active
09.13.10 Big World, Small Town 0.00 (0) 1319 (4) Open Collaborations 09.14.10 Active
09.12.10 Girl, Yo Man, He Luvs U with Tenor Sax(awigze) 7.75 (1) 2853 (11) Jazz (instrumental) 09.27.10 Active
09.11.10 We Will Not Forget 0.00 (0) 1694 (4) Open Collaborations 10.01.10 Active
09.10.10 A Good Day Take 2 0.00 (0) 1297 (8) Open Collaborations 09.11.10 Active
09.09.10 New Neighbors Can Be Cool 0.00 (0) 1315 (4) Open Collaborations 10.01.10 Active
09.08.10 A Good Day 0.00 (0) 1329 (8) Open Collaborations 09.08.10 Active
09.06.10 Make A Right At The Corner open collab  (---) 1260 (4) Open Collaborations 09.06.10 Active
09.04.10 Promises Break 0.00 (0) 1446 (10) Rhythm and Blues 09.11.10 Active
09.04.10 Do What You Say You Gonna Do 0.00 (0) 1217 (4) Open Collaborations 09.04.10 Active
09.03.10 Moving Day take 2 0.00 (0) 1497 (8) Open Collaborations 09.04.10 Active
09.01.10 Moving Day 0.00 (0) 1313 (2) Open Collaborations 09.01.10 Active
08.31.10 Late Night Coffee take 2 0.00 (0) 1489 (4) Open Collaborations 09.01.10 Active
08.31.10 Late Night Coffee 0.00 (0) 1478 (8) Open Collaborations 09.01.10 Active
08.30.10 It's Too Early In The Morning For This open collab 0.00 (0) 1541 (5) Open Collaborations 09.19.10 Active
08.28.10 Lines In The Water Take 1 Open Collab 0.00 (0) 1376 (5) Rhythm and Blues 09.01.10 Active
08.26.10 The Dust Of Living 80 BPM 0.00 (0) 1271 (6) Rhythm and Blues 08.27.10 Active
08.24.10 Looking Up!  (---) 1143 (4) Rhythm and Blues 08.24.10 Active
08.22.10 08222010 0.00 (0) 1337 (2) Rhythm and Blues 08.23.10 Active
08.21.10 F L A G aka Fight Like A Girl with vocal and 'guitars' 0.00 (0) 1026 (2) Rhythm and Blues 08.21.10 Active
08.20.10 F L A G aka Fight Like A Girl 0.00 (0) 1440 (2) Rhythm and Blues 08.20.10 Active
08.18.10 Look Inside 0.00 (0) 1360 (6) Other 08.20.10 Active
08.15.10 Do You Hear Bells Jamaica, NYC mix with 'guitars' 0.00 (0) 937 (0) Rock (instrumental) N/A Active
08.15.10 Sunday 0.00 (0) 994 (2) Rhythm and Blues 08.17.10 Active
08.14.10 For Now And Always 0.00 (0) 1074 (4) Rhythm and Blues 08.15.10 Active
08.11.10 My Dad's Cigar 0.00 (0) 1312 (2) Jazz (instrumental) 08.13.10 Active
08.10.10 Try To Get Some Sleep 0.00 (0) 1158 (2) Rhythm and Blues 08.10.10 Active
08.07.10 The Dust Of Living 0.00 (0) 1236 (4) Latin Jazz 08.09.10 Active
08.06.10 All Eye Want Is U 0.00 (0) 1203 (4) Rhythm and Blues 08.15.10 Active
08.03.10 Do You Hear Bells Jamaica, NYC mix 8.25 (1) 1301 (4) Rock 08.06.10 Active
08.02.10 Do You Hear Bells? 0.00 (0) 1246 (6) Rock (instrumental) 08.03.10 Active
08.02.10 Baby 6.75 (1) 872 (0) Rhythm and Blues N/A Active
07.29.10 Late On Tuesday Night full orchestration 0.00 (0) 1140 (2) Rhythm and Blues 07.30.10 Active
07.27.10 Late On Tuesday Night 0.00 (0) 878 (0) New Age N/A Active
07.27.10 Without U 0.00 (0) 1062 (0) Rhythm and Blues N/A Active
07.25.10 Thighs 0.00 (0) 1126 (2) Rhythm and Blues 07.26.10 Active
07.24.10 Baby, I Know That You're Really Scared Right Now 8.50 (1) 1226 (2) Rhythm and Blues 07.24.10 Active
07.22.10 He's In Luv With U 0.00 (0) 1575 (6) Rhythm and Blues 07.23.10 Active
07.19.10 07192010 0.00 (0) 1396 (3) Rhythm and Blues 07.19.10 Active
07.16.10 Girl, Yo Man, He Luvs U 0.00 (0) 1392 (5) Rhythm and Blues 07.16.10 Active
07.06.10 Face to Face Sonar 8 Effort 0.00 (0) 1140 (2) Rhythm and Blues 07.16.10 Active
06.25.10 The Best Thing This Side Of Heaven 4.00 (1) 1494 (4) Rhythm and Blues 01.17.11 Active
06.21.10 Honor 0.00 (0) 1202 (4) Inspirational (contemporary) 06.25.10 Active
06.17.10 A New One For Adawnye' 0.00 (0) 1315 (6) Children's Music 06.25.10 Active
06.13.10 Adawnye' Myangel with bass and bass melody 0.00 (0) 846 (0) Children's Music N/A Active
06.09.10 Adawnye' Myangel 0.00 (0) 1155 (4) Children's Music 06.11.10 Active
06.09.10 Don't Say Goodbye vocal test 7.63 (2) 1456 (6) Rhythm and Blues 06.17.10 Active
04.17.10 You Turned My Head Around with live electric bass 0.00 (0) 1284 (8) Rhythm and Blues 06.09.10 Active
04.16.10 Priceless 0.00 (0) 1004 (4) Rhythm and Blues 04.17.10 Active
04.07.10 Just One Day At A Time take 2 0.00 (0) 1131 (0) Rhythm and Blues N/A Active
04.03.10 Just One Day At A Time 7.50 (1) 1385 (8) Rhythm and Blues 04.04.10 Active
04.03.10 Number 145 0.00 (0) 1110 (2) New Age 04.03.10 Active
04.03.10 Not Really A Love Song 0.00 (0) 833 (2) Easy Listening 04.04.10 Active
03.31.10 Angry 0.00 (0) 1489 (5) Rhythm and Blues 04.02.10 Active
03.29.10 Stay The Night 8.25 (1) 1341 (2) Rhythm and Blues 03.31.10 Active
03.26.10 Still Feels New 0.00 (0) 1528 (6) Rhythm and Blues 04.08.10 Active
03.25.10 Don't Go To Bed Being Mad 7.75 (1) 1288 (3) Rhythm and Blues 03.26.10 Active
03.24.10 Some Tuesday Funk take 2 7.75 (1) 1607 (8) Funk 03.25.10 Active
03.23.10 Unafraid Of Me 0.00 (0) 1634 (10) Rhythm and Blues 03.24.10 Active
03.18.10 Nobodies Fool 0.00 (0) 1831 (5) Rhythm and Blues 03.21.10 Active
03.16.10 Can I Watch You Sleep 0.00 (0) 1272 (4) Rhythm and Blues 03.17.10 Active
03.16.10 In The Park 0.00 (0) 1304 (1) Easy Listening 03.16.10 Active
03.14.10 You Only Get One 0.00 (0) 1720 (10) Rhythm and Blues 07.29.12 Active
03.11.10 If I Gotta Swim 0.00 (0) 1265 (2) Rhythm and Blues 03.12.10 Active
03.10.10 Evil Will Not Win 8.50 (1) 1811 (12) New Age 08.04.11 Active
03.08.10 You Are My Life 8.25 (1) 1534 (2) Rhythm and Blues 03.09.10 Active
03.07.10 Wanna Be Like You When I Grow Up 0.00 (0) 2186 (16) Rhythm and Blues 08.25.10 Active
03.06.10 Do U Want 2 Dance? 0.00 (0) 1208 (3) Dance-Club 03.07.10 Active
03.05.10 CupCake 0.00 (0) 1454 (2) Rhythm and Blues 03.10.10 Active
03.05.10 Forever Starts Tonight 0.00 (0) 1476 (4) Jazz (instrumental) 03.14.10 Active
03.05.10 Highway Song 0.00 (0) 927 (2) Jazz Fusion 03.10.10 Active
03.05.10 There Is No One Like You 0.00 (0) 1215 (0) Jazz (instrumental) N/A Active
03.05.10 If Superman Were A Woman 0.00 (0) 1376 (0) Rhythm and Blues N/A Active
03.05.10 Don't Say Goodbye 8.75 (1) 2454 (7) Rhythm and Blues 03.11.10 Active
03.05.10 You're Still In My Heart(ballad) 0.00 (0) 1318 (0) Rhythm and Blues N/A Active
03.05.10 You're Still In My Heart(uptempo) 8.00 (1) 1256 (0) Rhythm and Blues N/A Active
03.05.10 A Lazy Sunday 8.25 (1) 1079 (0) Jazz (instrumental) N/A Active
03.04.10 You Turned My Head Around 0.00 (0) 1094 (0) Rhythm and Blues N/A Active
03.04.10 Opening 8.00 (1) 1447 (4) Jazz (instrumental) 04.11.10 Active
Favorite Songs (378)
Title Artist Date Genre
Wave Goodbye magnatone 06.12.13 Piano
Break Me Garni 05.23.13 Pop (Alternative)
The Embrace w/LisaHawbaker Garni 05.18.13 Inspirational (contemporary)
A Sad Goodbye (Julia's Song) ShadowofNine 05.05.13 Other
Your Life Garni 05.04.13 Pop (Alternative)
Moonglow SylviaD 03.27.13 Smooth Jazz
I Never Knew You w/Ramonaji Garni 03.23.13 Inspirational (contemporary)
To The Stars (with Rok41) Philip18 03.15.13 Acoustic
Fading In the Dark (using the alackbass tune "Orphan Changes") Philip18 02.16.13 Acoustic
TOO MUCH OF EVERYTHING KCsGROOVE 01.22.13 Rock
Tu Non Mi Conosci (You Don't Know Me) carlajpatterson 01.01.13 A Cappella
Speak Softly with Lisa H Garni 12.31.12 Gothic Rock
Heart, Please Break (with DonnaMarilyn) Mosaica 12.26.12 Soul
Dominant MikeHuntingford 12.23.12 Ambient
God Rest Ye Merry, Gentlemen Philip18 12.21.12 Holiday
My Own Little World Garni 12.17.12 Pop (Alternative)
SANTA BABY michaeljayklein 12.13.12 Holiday
Do You Hear What I Hear? SylviaD 12.11.12 Holiday
DUST IN THE WIND KCsGROOVE 12.08.12 Soft Rock-Adult Contemporary
When You Thought We Weren't Looking alackbass 12.01.12 Blues (contemporary)
One Hundred Years from Today michaeljayklein 11.20.12 Easy Listening
The Cost Philip18 11.14.12 Acoustic
Catalina Sun (with Rok41) Philip18 10.25.12 Smooth Jazz
TROUBLED TIMES KCsGROOVE 10.07.12 Rock
Preciosa Sneaky55 10.09.12 Easy Listening
I WANT YOU OUT (OF MY HEAD) KCsGROOVE 09.24.12 Jazz (vocal)
Before it's too Late (Garni + Alannah) Alannah 09.22.12 Other
The Road Home Philip18 09.14.12 Acoustic
Why Do You Hide? Garni 09.03.12 Pop (mainstream)
Pick Yourself Up michaeljayklein 08.24.12 Easy Listening
Let's Choose Today - Glastonbury 2012 Philip18 08.21.12 Acoustic
MANY MOONS 2 KCsGROOVE 08.09.12 Rock
Do You Remember? Garni 07.30.12 Piano
Yeah... gadzooks 07.27.12 Rhythm and Blues
All I Do is Dream of You michaeljayklein 07.21.12 Easy Listening
Guitars in the Moonlight Philip18 07.20.12 Smooth Jazz
Burnin" gadzooks 07.17.12 Acoustic Rock
Just Like A Man Garni 07.15.12 Industrial
Sing by Jerry Quinn alackbass 07.14.12 Acoustic Rock
I'm Crazy 'Bout My Baby with IBSTRAT michaeljayklein 07.08.12 Smooth Jazz
Corrina, Corrina Philip18 07.07.12 Folk (traditional)
Time is a Healer gadzooks 07.03.12 A Cappella
The Dark Road Garni 07.03.12 Pop (Alternative)
The Dark Road Garni 07.02.12 Pop Classical
"LipGloss" abzwork 07.02.12 Industrial
"Cheers" abzwork 06.29.12 Jazz Fusion
Flying gadzooks 06.28.12 Hard Rock
Enjoy The Ride Philip18 06.27.12 Rock & Roll
Rainbow 'Round My Shoulder michaeljayklein 06.26.12 Swing
Secret Whisper Garni 06.25.12 Piano
Sacred & Profane alackbass 06.22.12 Acoustic
The Broken Swing Philip18 06.15.12 Acoustic
Fix Ourselves Garni 06.13.12 Pop (Alternative)
Nothing You Can Say w/ Jerry_Quinn, Ryan, ktb, & scofugate alackbass 06.12.12 Rock
Rain Rain gadzooks 06.09.12 Alternative Rock
Let Down (DWH w/Alannah) Alannah 06.08.12 Other
Now the Love is Gone, a capella PaulaMunk 06.08.12 Open Collaborations
Shine Bright (For my woman) Garni 06.07.12 Pop Classical
ROUTE 66 (by Awigze, Sylvia & MJK) TheEasyAces 05.28.12 Jazz (vocal)
RAYS OF LIGHT KCsGROOVE 05.22.12 Rock
Talk To Myself jiguma 05.12.12 Acoustic Rock
How It Seems alackbass 05.12.12 Acoustic
Speak Softly (Mix #2) Garni 05.09.12 Pop (Alternative)
Alone on a River w/ sammydix & kevmikwa alackbass 05.04.12 Hard Rock
BOSSES AND SLAVES KCsGROOVE 05.03.12 Funk
Speak Softly Garni 04.29.12 Pop (Alternative)
Beauté Érotique Garni 04.25.12 Inspirational (contemporary)
The Laughing Song Mosaica 04.23.12 Opera
Waiting Here For You alackbass 04.06.12 Easy Listening
Love from Russia Garni 04.04.12 Piano
They Can't Take that Away from Me michaeljayklein 03.31.12 Showtunes
Requiem for Trayvon Martin bigdaddycee 03.26.12 Other
Your Own Worst Enemy alackbass 03.24.12 Folk (contemporary)
Tu Seulement Tu carlajpatterson 02.27.12 Experimental
LOOSEN UP KCsGROOVE 02.20.12 Rock
Empty Rooms w/ Leon alackbass 02.17.12 Acoustic
VILLAGE DANCE feat. AWZIGE and DanAnthony bigdaddycee 02.16.12 Jazz Fusion
It Don't Mean a Thing (If it Ain't got that Swing!) michaeljayklein 02.13.12 Swing
WONDERING KCsGROOVE 02.09.12 Rock
I'll Catch You If You Fall Garni 02.08.12 Pop (mainstream)
Titan Mosaica 01.14.12 Trip Hop
FAST JIVE KCsGROOVE 12.29.11 Funk
Have Yourself A Merry Little Christmas/A BDC Instrumental bigdaddycee 12.17.11 Holiday
No Web Inside Garni 12.15.11 Gothic Rock
A TASTE OF FREEDOM KCsGROOVE 12.10.11 Rock
More Christmas Sickness! michaeljayklein 12.06.11 Holiday
Blind Love (Seeing Heart) - Orchestral Version magnatone 12.06.11 Pop Classical
That Old Black Magic michaeljayklein 11.23.11 Jazz (vocal)
Smanie Implacabili Mosaica 11.22.11 Opera
Alternate Reality ramonaji 11.17.11 Alternative Rock
JEEPERS, CREEPERS (in Outer Space) michaeljayklein 11.06.11 Swing
DOWN with LOVE! michaeljayklein 10.18.11 Political
Breaking All the Laws of Love (word association challenge) michaeljayklein 10.10.11 Showtunes
The Cat Came Back alackbass 10.08.11 Children's Music
Forbidden Fruit w/zeFIF Garni 10.03.11 Pop (Alternative)
Baby I Don't Roll Like That .... Alannah 10.02.11 A Cappella
WHEN THE MUSIC'S GONE KCsGROOVE 10.01.11 NUjazz
Dark Side Of The Sun Garni 09.28.11 Pop (Alternative)
String quartet: After work, Late at night andreasvanharen 09.28.11 Romantic
Guitars Visit Venezuela Philip18 09.25.11 Latin Jazz
Watch The Sun Garni 09.23.11 Pop (Alternative)
my girlfriend is an alien that80sboy 09.20.11 Pop (Alternative)
Sweetly Sings The Donkey alackbass 09.17.11 Children's Music
Sweetly Sings The Donkey alackbass 09.17.11 Children's Music
Sweetly Sings The Donkey alackbass 09.17.11 Children's Music
Cold Textures Garni 09.15.11 Film Scoring
The Spirit is Willing michaeljayklein 09.12.11 Film Scoring
If All the World Were MJ w/ Alannah, Andrew, John, Mike, Scott & Stan Philip18 09.12.11 Rock
Nobody Knows You ramonaji 09.11.11 Pop (Alternative)
Walking My Baby Back Home michaeljayklein 09.05.11 Easy Listening
St Louis Blues Mosaica 09.02.11 Blues (traditional)
I TAUT I TAW A PUDDY TAT! michaeljayklein 08.31.11 Children's Music
Winter Song Philip18 08.25.11 Acoustic
Marley's Heavy Metal michaeljayklein 08.25.11 Metal
Chicken Skin gadzooks 08.24.11 Funk
I Got the Fried Monkey in the Face Blues michaeljayklein 08.23.11 Comedy-Satire-Parody
Real neilh79 08.22.11 Folk (contemporary)
CAN'T GET ENOUGH KCsGROOVE 08.22.11 Rock
Please Don't Talk About Me When I'm Gone (w. A. McPike, T. Mischibobb, J. Cribblecobblis) michaeljayklein 08.21.11 Swing
Guitars on a Sunny Day with SCJohnson59 Philip18 08.19.11 Smooth Jazz
Set Us Free w/Angela Hope Garni 08.17.11 Easy Listening
Guitars on a Sunny Day Philip18 08.16.11 Fingerstyle Guitar
Live from the Hotel Tip-Top (Part III) michaeljayklein 08.14.11 Easy Listening
Funk in the Sun Bob6stringer 08.14.11 Funk
Living on the Fringe w/ Ryan, gadzooks, ktb, & Loob alackbass 08.12.11 Country-Western
SIX of EIGHT feat. DanAnthony bigdaddycee 08.11.11 Jazz (instrumental)
Five Minutes More michaeljayklein 08.08.11 Swing
Summer Rain by Neilh79 w/Awigze & Gadzooks gadzooks 08.07.11 Experimental
Guitars on a Rainy Day Philip18 08.07.11 Fingerstyle Guitar
when are we gonna be (back in love) that80sboy 08.05.11 Pop (Alternative)
CRAMP (Alannah, BTransue) with additions of a piece of ("Loser" - Alannah, Scofugate) Alannah 07.30.11 Other
DRIFTING KCsGROOVE 07.30.11 Rock
Broken Hearts michaeljayklein 07.29.11 Swing
ค қɿςς ੮૦ ცυɿՆძ ค ძՐ૯คɱ ૦Ո michaeljayklein 07.27.11 Jazz (vocal)
Never Leave awigze 07.24.11 Other
Air on the G-String (woo-woo!) michaeljayklein 07.23.11 Classical
Long Gone by jerry_quinn w/ gadzooks, ktb, kevmikwa, Ryan, & David alackbass 07.22.11 Folk (contemporary)
ஜ۩۞۩ஜDamien versus AndyBobbaஜ۩۞۩ஜ The Original Motion Picture Soundtrack michaeljayklein 07.20.11 Cinematic Soundtrack
One Small Moment w/Alannah Garni 07.20.11 Ballad
HIGH ROLLER KCsGROOVE 07.19.11 Rock
Tynan 2011 ReMix Garni 07.19.11 Gothic Rock
Seguidilla Mosaica 07.16.11 Opera
BAD MAN (Sigmund, Alackbass, KTB, Dashriprock) rok41 07.15.11 Rock
Vicissitude awigze 07.14.11 Experimental
Exactly Like You michaeljayklein 07.13.11 Easy Listening
Your Hearts In Mine (Tribute to Mum) Garni 07.07.11 Ballad
VANILLA STRUT KCsGROOVE 07.07.11 Funk
A Conversation With My Father Philip18 07.07.11 Acoustic
Crushed Angel REMIX (Alannah + BTransue) Alannah 07.04.11 Acoustic
Ionosphere Garni 07.03.11 Dance-Club
BURNING SISTERS 07.01.11 Ambient
The Routine #5 Rag michaeljayklein 06.30.11 Piano
Funked Up gadzooks 06.30.11 Funk
For You Lyn! michaeljayklein 06.28.11 Easy Listening
SWEET MOMENTS KCsGROOVE 06.28.11 Blues (contemporary)
Live from the Ashtray Room of the Hotel TipTop michaeljayklein 06.26.11 Other
Give Me the Simple Life michaeljayklein 06.25.11 Jazz (vocal)
I LIKE IT w Bob Pompei SISTERS 06.23.11 Easy Listening
LISTEN TO THE MOCKINGBIRD michaeljayklein 06.22.11 Easy Listening
I THOUGHT ABOUT YOU michaeljayklein 06.22.11 Easy Listening
So Dark, So Cold Garni 06.21.11 Gothic Rock
A GIRL LIKE YOU KCsGROOVE 06.21.11 Blues (contemporary)
Crystal (Sisters) davisamerica 06.19.11 Other
Always Leaves Me Wanting More ramonaji 06.19.11 Pop (Alternative)
Always Leaves Me Wanting More ramonaji 06.19.11 Pop (Alternative)
Blind Love (piano solo) magnatone 06.15.11 Piano
In Flight Llarion 06.13.11 Jazz Fusion
Mean to Me michaeljayklein 06.12.11 Political
THINGS ON MY MIND KCsGROOVE 06.10.11 Rock
Just Be a Kid alackbass 06.09.11 Acoustic
Orchestral Drum gadzooks 06.09.11 Alternative Rock
5X4 by ShadowofNine (w/organ+synth) TobinMueller 06.09.11 Progressive Rock
Ink w/Donna Garni 06.09.11 Ballad
Diga Diga Doo (Diga Doo Doo) michaeljayklein 06.05.11 Jazz (vocal)
RIDING ON THE WIND OF CHANGE KCsGROOVE 06.01.11 Funk
RIDING ON THE WIND OF CHANGE KCsGROOVE 06.01.11 Funk
Dark Places (Garni + Alannah) Alannah 05.29.11 Gothic Rock
Personality michaeljayklein 05.28.11 Swing
Alone Llarion 05.26.11 Jazz (instrumental)
That Much Stronger alackbass 05.26.11 Acoustic
DOWN ON THE CORNER KCsGROOVE 05.25.11 Rock
I lived In an Apartment Building gadzooks 05.20.11 Alternative Rock
If You Love Me Let Me Go Garni 05.19.11 Electropop
Future Thoughts mana_junkie 05.16.11 Downtempo
Mimi michaeljayklein 05.15.11 Showtunes
Tattooed Scars (w/ Sigmund, Scofugate, Rok41) RAVENS 05.13.11 Alternative Rock
The Journey w/Ramonaji Garni 05.13.11 Electropop
Living With Fire In A Burning House Vic Holman 05.10.11 Rock
KING OF THE ROAD KCsGROOVE 05.08.11 Rock
My-Oleo falcef 05.06.11 NUjazz
Life On The Trapeze jiguma 05.01.11 Acoustic Rock
On the Sunny Side of the Street michaeljayklein 04.30.11 Easy Listening
Somebody's Sonnet #1 (In Progress) Garni 04.28.11 Piano
Eres muy hermosa nick_w 04.27.11 Latin
MANY MOONS KCsGROOVE 04.26.11 Rock
Last Train to New York -w/ awigze scofugate 04.25.11 Smooth Jazz
Pretty Little Senorita (by jd Holliday) jiguma 04.24.11 Soft Rock-Adult Contemporary
Take It Outside w/ D. Jorden, Students, Gaylen75, Sigmund, five_extra_arms, Scofugate alackbass 04.22.11 Heavy Metal
My Past Life Feels Like Yesterday ShadowofNine 04.22.11 Rock (instrumental)
She wore Black Garni 04.19.11 Gothic Rock
I Get a Kick Out of You michaeljayklein 04.17.11 Showtunes
I Get a Kick Out of You michaeljayklein 04.17.11 Showtunes
I Get a Kick Out of You michaeljayklein 04.17.11 Showtunes
WHEN WE HAD IT ALL w Pompei SISTERS 04.14.11 Acoustic
Saturday Morning SmokeyVW 04.13.11 Easy Listening
Get It papag 04.10.11 Electronic
The Goth (in progress) Garni 04.08.11 Emo
Say NO (to Nuclear) Garni 04.06.11 Electronic
Life In a J.A.R. w/rok41 Chris Flynn jodyrush 04.04.11 Soft Rock-Adult Contemporary
Someday ramonaji 04.03.11 Alternative Rock
We Know w/ scofugate, fasteddie, Relic67 and RAVENS neilh79 04.01.11 Acoustic Rock
WakWakSax by Taylor Morgan w/ SCJohnson awigze 03.28.11 Open Collaborations
It's Only a Paper Moon michaeljayklein 03.28.11 Jazz (vocal)
It's Only a Paper Moon michaeljayklein 03.28.11 Jazz (vocal)
It's Only a Paper Moon michaeljayklein 03.28.11 Jazz (vocal)
Smackdown 3 w/awigze & scofugate magnatone 03.27.11 Pop Orchestral
K-A-R-M-A RAVENS 03.20.11 Rock
THE WAYS OF THE MUSE KCsGROOVE 03.13.11 Rock
My Monument Garni 03.11.11 Gothic Rock
Gone in a Flash jodyrush 03.10.11 Soft Rock-Adult Contemporary
Rainbows n Butterflies w/Donna Garni 03.09.11 Ballad
Is Tu Mo Ghra - I Love You Garni 03.08.11 Ballad
WE LEAVE THE WORLD BEHIND bigdaddycee 03.07.11 Pop (mainstream)
DON'T WANT TO TALK ABOUT IT KCsGROOVE 03.06.11 Rock
Between the Devil and the Deep Blue Sea michaeljayklein 03.05.11 Easy Listening
Quiet Talk w/BorisLuxx Garni 03.04.11 Electropop
wakwak by taylormorgan SCJohnson59 03.03.11 Ambient
wakwak90BPM taylormorgan 03.03.11 Open Collaborations
Summer Crusin' bigdaddycee 03.02.11 Jazz (instrumental)
HANG ON TO MY DREAM KCsGROOVE 02.27.11 Rock
No Talkin' Anymore ramonaji 02.26.11 NUjazz
"Ike's Kids" Solo Andy Sax Daugrin 02.26.11 Jazz (instrumental)
I Can't Give You Anything But Love michaeljayklein 02.26.11 Jazz (vocal)
free that80sboy 02.23.11 Rock
Her Sweet Breath Garni 02.23.11 Ambient
LOVE HURTS KCsGROOVE 02.21.11 Rock
Goody Goody michaeljayklein 02.21.11 Swing
Ricreazione-Samba falcef 02.16.11 Latin Jazz
DEAD MAN WALK KCsGROOVE 02.14.11 Rock
April Showers michaeljayklein 02.12.11 Easy Listening
Moon Called Mars w/ Rok41 and Kevmikwa Sigmund 02.11.11 Rock (instrumental)
Confluence (Piano Solo) magnatone 02.08.11 Piano
LIFELINE KCsGROOVE 02.07.11 Rock
Get It On (Feat Morgan102 & bigdaddycee) RAVENS 01.24.11 Rhythm and Blues
CAN'T YOU SEE KCsGROOVE 01.24.11 Rock
Freedom (W/Spitlogic) Skean 01.19.11 Hip Hop-Rap
LET'S DO IT michaeljayklein 01.16.11 Jazz (vocal)
Two Bitches Daugrin 01.15.11 Jazz Fusion
This Dark Night (W/My wife) Skean 01.13.11 Ambient
You Know I Never Loved You ShadowofNine 01.12.11 Ballad
Wide Open by taylormorgan SCJohnson59 01.12.11 Ambient
Sequence You Garni 01.11.11 Pop (Alternative)
Turn On The Day Loob 01.08.11 Rock
MEN IN SUITS KCsGROOVE 01.06.11 Blues (contemporary)
Tick tock KCsGROOVE 12.29.10 Funk
Pianosolo2011 falcef 12.27.10 Piano
Dark City Streets ramonaji 12.25.10 Alternative Rock
THOSE WERE THE DAYS KCsGROOVE 12.24.10 Inspirational (contemporary)
Kilimanjaro (w/Paddler and Sigmund) rok41 12.19.10 Rock (instrumental)
In The Bleak Midwinter magnatone 12.18.10 Piano
All of Me michaeljayklein 12.17.10 Easy Listening
Rip off 2.0 / by Ibstrat and a ridiculously good bass player friend of his scofugate 12.17.10 Jazz (instrumental)
Time Traveller simonlau 12.16.10 Jazz Fusion
I Wanna Be Loved by You michaeljayklein 12.14.10 Bebop
On a Slow Boat to China michaeljayklein 12.14.10 Easy Listening
ROSA'S CANTINA KCsGROOVE 12.12.10 Funk
If You v2 (final w/ Scott Johnson on bass) papag 12.10.10 Pop (Alternative)
There'll Be Some Changes Made michaeljayklein 12.10.10 Swing
Forgive Me, I (w/ Symphony101, Sigmund, alackbass, kevmikwa) RAVENS 12.10.10 Rock
I've Got My Love to Keep Me Warm michaeljayklein 12.06.10 Swing
Ain't Misbehavin' michaeljayklein 12.04.10 Smooth Jazz
Jingle Bells (done my way) michaeljayklein 12.03.10 Holiday
I'm Gonna Sit Right Down and Write Myself a Letter michaeljayklein 12.01.10 Easy Listening
A Farewell magnatone 11.30.10 Piano
Your Feets Too Big michaeljayklein 11.29.10 Inspirational (contemporary)
ONE LOOK KCsGROOVE 11.28.10 Rock
When You're Smiling/The Sheik of Araby michaeljayklein 11.27.10 Swing
Wearing a Fried Egg on My Head (and Got on Kleenex™ Box Shoes) michaeljayklein 11.26.10 Electropop
What Kind of Person Do I Want to Be w/D. Jorden, My Students, Rich, Andy, Mike, Bryn, & Bob alackbass 11.23.10 Rhythm and Blues
WRONG WAY HOME w Fran Dagostino jiguma 11.22.10 Rock
Flaunt It w/Gaylen Alackbass Awigze Paddler Kevmikwa Particledots Ryan Carrie71 11.17.10 Funk
11-7-10 Bass Idea (Producer Challenge) particledots 11.13.10 Open Collaborations
Let's Go Slumming michaeljayklein 11.12.10 Easy Listening
Till I Get to Paradise w/jd ktholliday 11.12.10 Inspirational (contemporary)
Make Me Fall ramonaji 11.11.10 Alternative Rock
Gra.Tar. falcef 11.11.10 Experimental
I Could Write a Book michaeljayklein 11.09.10 Swing
Let It Go onesweetworld 11.07.10 Dance-Club
OH MARIE! michaeljayklein 11.06.10 Swing
Gun Shy w/sloparts/jdholliday ktholliday 11.05.10 Blues (contemporary)
Fall Rising magnatone 11.03.10 Pop Orchestral
Corrina Corrina jibes 10.30.10 Folk (traditional)
The Lady is a Tramp (open collab) michaeljayklein 10.26.10 Swing
TANGERINE michaeljayklein 10.22.10 Easy Listening
Accattatevillo falcef 10.21.10 Electropop
You Do Something to Me michaeljayklein 10.17.10 Jazz (vocal)
OMEN bigdaddycee 10.15.10 Pop (Alternative)
You're the Top michaeljayklein 10.12.10 Jazz (vocal)
It Had to be You michaeljayklein 10.11.10 Jazz (vocal)
It's a Sin to Tell a Lie michaeljayklein 10.01.10 Jazz (vocal)
Did Ya Know? RAVENS 09.29.10 Ballad
Emma rabittwhole 09.25.10 Open Collaborations
MOVE YOUR BODY ramonaji 09.24.10 Dance-Club
My Baby Just Cares for Me michaeljayklein 09.23.10 Jazz (vocal)
John 1 - by Olivia dancedivine 09.19.10 Folk-Rock
Just a Gigolo michaeljayklein 09.19.10 Romantic
Piriparapero falcef 09.18.10 Funk
Always Look on the Bright Side of Life michaeljayklein 09.14.10 Showtunes
Lazy River michaeljayklein 09.13.10 Swing
RENEGADE SKIN jiguma 09.12.10 Acoustic Rock
Ain't Nobody Here but Us Chickens! michaeljayklein 09.06.10 Swing
Hotel Life w/awigze hackneybloke 09.05.10 Acoustic
Tequila (No Hangover Mix) chinaman2 09.05.10 Pop (mainstream)
Rhythumb Ibstrat 09.03.10 Fingerstyle Guitar
You're Getting to be a Habit with Me michaeljayklein 09.02.10 Easy Listening
GLOWING IN THE DARK CIASM_ZENABI_ 09.02.10 Jazz Fusion
Wake Me Gently paul f. page 08.29.10 Easy Listening
Pennies from Heaven michaeljayklein 08.26.10 Jazz (vocal)
Summer Sizzle (T4S) w/ SISTERS awigze 08.21.10 Ballad
Chrome side Bus T4S guygrooves 08.20.10 Rock
Love Me Baby rok41 08.18.10 Rock
Scherzo in A minor (v2) georgeptingley 08.18.10 Baroque
If You (v1) papag 08.17.10 Pop (Alternative)
Heaven Must Be Like This (w/ Electric Soul) Angela_Hope 08.17.10 Rhythm and Blues
Lydia the Tattooed Lady michaeljayklein 08.16.10 Informational
The Birth of the Blues michaeljayklein 08.14.10 Swing
'Deed I Do! (Awigze/Lilmom/MJK) TheEasyAces 08.11.10 Jazz (vocal)
50 Golden Years Sigmund 08.05.10 Rock (instrumental)
Just Squeeze Me michaeljayklein 08.02.10 Jazz (vocal)
Dulce's DADication - Instrumental drakonis 07.31.10 Acoustic
Lights, Camera, Action (DJ Andy Foxx remix!) ramonaji 07.30.10 Dance-Club
Forever, For Always RAVENS 07.25.10 Ballad
Love, Love. Moviz 07.25.10 Latin Jazz
A Shine on Your Shoes michaeljayklein 07.24.10 Jazz (vocal)
Loveless & Dead W/Brian Delaney remix hackneybloke 07.18.10 Acoustic
OPEN COLLAB June 18, 2010 Alannah 07.17.10 Open Collaborations
Texas Jam Sampler 1 MarkHolbrook 07.11.10 Other
Irrational Exuberance magnatone 07.06.10 Pop Classical
Girl on Fire RAVENS 06.22.10 Pop (Alternative)
Genesis rok41 05.31.10 Soft Rock-Adult Contemporary
Bedtime Lullaby (A Song for my Grandkids) GregDz 05.23.10 Children's Music
Funk It Y'all (Bass/Drums) Hectorious 05.02.10 Open Collaborations
Rakatama falcef 04.03.10 Experimental
Not the Marrying Kind ramonaji 03.23.10 Alternative Rock
Pretend That You Love Me ramonaji 03.15.10 Jazz Fusion
The Funky Developer dave_b 03.13.10 Comedy-Satire-Parody
The Hub of Life Moviz 03.13.10 Pop (mainstream)
Nada-denada falcef 03.11.10 New Age
Meade Lux Lewis Stomp michaeljayklein 03.16.10 Piano
Alora-la-sta-zo falcef 03.10.10 Experimental
Boppin' Down The Coastal Highway scottydude 03.06.10 Jazz (instrumental)
Lemon Curd Mash davajonah 03.06.10 Jazz Fusion
five percent ste 03.06.10 Pop (Alternative)
Picture of Your Face - by Olivia dancedivine 03.07.10 Acoustic
Confluence magnatone 03.05.10 Pop Classical
Sambasmori falcef 03.05.10 Latin Jazz
Tell Your Other Girlfriend ramonaji 03.02.10 Alternative Rock
Original Sin (collab w/ woofer 3) johnwhitehead 02.25.10 Rock & Roll
Music Sexy N Slow feat. Casino Zamzam 03.01.10 Rhythm and Blues
P.R.I.D.E. spitlogic 01.26.10 Hip Hop-Rap
Farewell Fair Weather Friend w/Alannah and Awigze scofugate 01.23.10 Smooth Jazz
O Holy Night magnatone 12.22.09 Piano
The Phoenix magnatone 12.11.09 Pop Classical
Remember-Miles falcef 12.03.09 Jazz (instrumental)
Symphonic Smackdown magnatone 10.12.09 Pop Orchestral
The Worlds gone crazy (last version) ldmac 05.29.09 Rhythm and Blues
It's Lonely Here davisamerica2 04.21.09 Acoustic Rock
Imagine Me Without You ramonaji 03.11.09 Electropop
Springtime In Manhattan ShadowofNine 02.26.09 Pop Orchestral
RIDE w MickD SISTERS 02.05.09 Indie Rock
Requiem For A Friend mackellar 11.21.08 Classical
You're My Girl royal2350 06.16.08 Rhythm and Blues
Slap-E-Jam simonlau 01.29.08 Funk
No More Tricks n.j. 07.06.07 Rhythm and Blues
Lace Panties Alannah 05.25.07 Ambient
jaco's bounce kcsaito 12.24.05 Funk
jaco's sky kcsaito 10.22.05 Rhythm and Blues
The Best Ive Known yellow_monsta 04.01.05 Rhythm and Blues
Favorite MacJammers (37)
Fans (23)
Music Background I've had a passion for music dating back to being a very young child and seeing The Beatles on Ed Sullivan along with being exposed to jazz and classical by my non-musician parents and Motown by my youngest Aunt. I started playing electric bass in '76 and started playing piano and writing songs 2 years later. I studied electric bass from a jazz player and sang classical 4 part harmony in my church choir(i used to steal the music, that's how I learned to read lol). Did session work and was a weekend warrior in the '80s and '90s. And here I am! :)
Music Skills 4 & 5 string electric bass, keyboards, writing, arranging and recording.
Music Hardware Roland Fantom X-6, Roland D-5, Ibanez SR-505 electric bass, EMU Proteus 1 module, Kawai MX-8SR mixer(for my keyboards and module), ASUS laptop, Tascam NFMs and subwoofer.
Music Software Sonar X-1 Producer
Keywords Soul, R and B, Motown, Smooth Jazz